Tampa Macdill AFB, FL

4:21 AM EDT on October 23, 2019 (GMT -0400)
MacDill Air Force Base

Weather History for KMCF - September, 2019

Change the Weather History Date:

Tuesday, September 17, 2019

  Actual Average Record
Temperature  
Mean Temperature 82 °F -  
Max Temperature 91 °F 86 °F 93 °F (1997)
Min Temperature 72 °F 73 °F 69 °F (1999)
Cooling Degree Days 16    
Growing Degree Days 32 (Base 50)    
Moisture  
Dew Point 73 °F    
Average Humidity 74    
Maximum Humidity 95    
Minimum Humidity 53    
Precipitation  
Precipitation 0.00 in - - ()
Sea Level Pressure  
Sea Level Pressure 29.96 in    
Wind  
Wind Speed 3 mph (NNW)    
Max Wind Speed 13 mph    
Max Gust Speed 18 mph    
Visibility 10 miles    
Events      
Averages and records for this station are not official NWS values.
T = Trace of Precipitation, MM = Missing Value Source: NWS Daily Summary

Daily Weather History Graph

Daily Weather History Graph

Search for Another Location

Airport or City:

Astronomy

Sep. 17, 2019 Rise Set
Actual Time 7:16 AM EDT 7:32 PM EDT
Civil Twilight 6:52 AM EDT 7:56 PM EDT
Nautical Twilight 6:25 AM EDT 8:23 PM EDT
Astronomical Twilight 5:57 AM EDT 8:51 PM EDT
Moon 9:50 PM EDT (9/17) 10:06 AM EDT (9/17)
Length of Visible Light 13h 03m
Length of Day
12h 16m
Waning Gibbous, 89% of the Moon is Illuminated
Sep 17
Waning Gibbous
Sep 21
Last Quarter
Sep 28
New
Oct 5
First Quarter
Oct 13
Full

Hourly Weather History & Observations

Time (EDT) Temp. Heat Index Dew Point Humidity Pressure Visibility Wind Dir Wind Speed Gust Speed Precip Events Conditions
12:56 AM 76.5 °F - 73.9 °F 92% 29.95 in 10.0 mi Calm Calm - N/A   Clear
1:56 AM 76.5 °F - 73.9 °F 92% 29.95 in 10.0 mi Calm Calm - N/A   Clear
2:56 AM 75.9 °F - 73.4 °F 92% 29.94 in 10.0 mi Calm Calm - N/A   Clear
3:56 AM 74.5 °F - 72.5 °F 94% 29.92 in 10.0 mi Calm Calm - N/A   Clear
4:56 AM 74.7 °F - 73.0 °F 95% 29.92 in 10.0 mi Calm Calm - N/A   Clear
5:56 AM 73.6 °F - 72.0 °F 95% 29.94 in 10.0 mi Calm Calm - N/A   Clear
6:56 AM 72.3 °F - 70.5 °F 94% 29.96 in 10.0 mi Calm Calm - N/A   Clear
7:56 AM 75.7 °F - 73.6 °F 93% 29.98 in 10.0 mi NW 3.5 mph - N/A   Clear
8:56 AM 84.4 °F 92.4 °F 75.0 °F 73% 29.99 in 10.0 mi WNW 4.6 mph - N/A   Clear
9:56 AM 85.8 °F 95.5 °F 75.7 °F 72% 30.00 in 10.0 mi NNE 6.9 mph - N/A   Clear
10:56 AM 86.5 °F 98.3 °F 77.2 °F 74% 30.00 in 10.0 mi North 8.1 mph - N/A   Clear
11:56 AM 88.5 °F 98.8 °F 75.6 °F 65% 30.00 in 10.0 mi North 8.1 mph - N/A   Clear
12:56 PM 90.7 °F 101.3 °F 75.2 °F 60% 29.99 in 10.0 mi NW 8.1 mph - N/A   Clear
1:56 PM 90.9 °F 100.6 °F 74.5 °F 58% 29.97 in 10.0 mi NNW 11.5 mph - N/A   Clear
2:56 PM 91.4 °F 99.5 °F 72.9 °F 54% 29.95 in 10.0 mi NNW 12.7 mph - N/A   Clear
3:56 PM 91.2 °F 99.1 °F 72.7 °F 54% 29.93 in 10.0 mi NNW 12.7 mph 17.3 mph N/A   Clear
4:56 PM 90.5 °F 97.0 °F 71.4 °F 53% 29.92 in 10.0 mi NNW 6.9 mph - N/A   Clear
5:56 PM 89.4 °F 95.3 °F 70.5 °F 54% 29.92 in 10.0 mi NNW 9.2 mph 18.4 mph N/A   Clear
6:56 PM 87.3 °F 92.0 °F 69.6 °F 56% 29.92 in 10.0 mi NNW 6.9 mph - N/A   Clear
7:56 PM 84.4 °F 89.4 °F 70.9 °F 64% 29.93 in 10.0 mi NNW 5.8 mph - N/A   Clear
8:56 PM 83.8 °F 89.8 °F 72.9 °F 69% 29.95 in 10.0 mi North 5.8 mph - N/A   Clear
9:56 PM 82.8 °F 89.5 °F 74.7 °F 76% 29.97 in 10.0 mi North 5.8 mph - N/A   Clear
10:56 PM 82.0 °F 88.4 °F 74.5 °F 78% 29.98 in 10.0 mi NNE 4.6 mph - N/A   Clear
11:56 PM 80.2 °F 84.7 °F 73.4 °F 80% 29.97 in 10.0 mi NNE 4.6 mph - N/A   Clear